Weather History for KPRG - December, 2012

Change the Weather History Date:

Monday, December 3, 2012

  Actual Average (KHUF) Record (KHUF)
Temperature  
Mean Temperature 64 °F 36 °F  
Max Temperature 70 °F 44 °F 73 °F (1982)
Min Temperature 58 °F 28 °F 5 °F (1966)
Degree Days  
Heating Degree Days 1 29  
Month to date heating degree days 86  
Since 1 July heating degree days 1164  
Cooling Degree Days 0 0  
Month to date cooling degree days 0  
Year to date cooling degree days 993  
Growing Degree Days 14 (Base 50)    
Moisture  
Dew Point 59 °F    
Average Humidity 83    
Maximum Humidity 98    
Minimum Humidity 66    
Precipitation  
Precipitation 0.00 in 0.08 in 1.13 in (1967)
Month to date precipitation 0.26  
Year to date precipitation 42.37  
Sea Level Pressure  
Sea Level Pressure 30.01 in    
Wind  
Wind Speed 14 mph (South)    
Max Wind Speed 28 mph    
Max Gust Speed 36 mph    
Visibility 7 miles    
Events      
T = Trace of Precipitation, MM = Missing Value Source: NWS Daily Summary

Daily Weather History Graph

Daily Weather History Graph

Search for Another Location

Airport or City:

Trip Planner

Search our weather history database for the weather conditions in past years. The results will help you decide how hot, cold, wet, or windy it might be!

Date:

Astronomy

Dec. 03, 2012 Rise Set
Actual Time 6:54 AM CST 4:26 PM CST
Civil Twilight 6:24 AM CST 4:56 PM CST
Nautical Twilight 5:51 AM CST 5:29 PM CST
Astronomical Twilight 5:18 AM CST 6:02 PM CST
Moon 9:12 PM CST (12/3) 10:18 AM CST (12/3)
Length of Visible Light 10h 31m
Length of Day
9h 31m
Waning Gibbous, 78% of the Moon is Illuminated
Dec 3
Waning Gibbous
Dec 6
Last Quarter
Dec 13
New
Dec 19
First Quarter
Dec 28
Full

Hourly Weather History & Observations

Time (CST) Temp. Dew Point Humidity Pressure Visibility Wind Dir Wind Speed Gust Speed Precip Events Conditions
12:15 AM 58.1 °F 57.6 °F 98% 30.08 in 2.0 mi SE 6.9 mph - N/A   Overcast
12:35 AM 58.3 °F 57.7 °F 98% 30.07 in 2.0 mi SSE 9.2 mph - N/A   Overcast
12:55 AM 59.0 °F 58.5 °F 98% 30.07 in 3.0 mi SSE 10.4 mph - N/A   Overcast
1:15 AM 59.5 °F 59.0 °F 98% 30.07 in 3.0 mi South 6.9 mph - N/A   Overcast
1:35 AM 59.5 °F 59.0 °F 98% 30.08 in 3.0 mi South 6.9 mph - N/A   Overcast
1:55 AM 59.5 °F 59.0 °F 98% 30.08 in 3.0 mi South 10.4 mph - N/A   Overcast
2:15 AM 59.9 °F 59.2 °F 97% 30.08 in 3.0 mi South 9.2 mph - N/A   Overcast
2:35 AM 59.9 °F 59.2 °F 97% 30.07 in 4.0 mi South 8.1 mph - N/A   Overcast
2:55 AM 59.9 °F 59.2 °F 97% 30.06 in 4.0 mi South 8.1 mph - N/A   Overcast
3:15 AM 59.9 °F 59.0 °F 97% 30.06 in 4.0 mi South 9.2 mph - N/A   Overcast
3:35 AM 59.9 °F 59.0 °F 97% 30.06 in 4.0 mi South 8.1 mph - N/A   Overcast
3:55 AM 60.1 °F 59.2 °F 97% 30.05 in 5.0 mi South 9.2 mph - N/A   Overcast
4:15 AM 60.3 °F 59.2 °F 96% 30.05 in 5.0 mi South 9.2 mph - N/A   Overcast
4:35 AM 60.4 °F 59.2 °F 96% 30.05 in 5.0 mi South 10.4 mph - N/A   Overcast
4:55 AM 61.0 °F 59.9 °F 96% 30.05 in 7.0 mi South 11.5 mph - N/A   Overcast
5:15 AM 61.7 °F 59.9 °F 94% 30.05 in 7.0 mi South 12.7 mph 18.4 mph N/A   Overcast
5:35 AM 61.7 °F 59.4 °F 92% 30.05 in 7.0 mi South 11.5 mph - N/A   Overcast
5:55 AM 61.7 °F 59.4 °F 92% 30.05 in 7.0 mi South 11.5 mph - N/A   Overcast
6:15 AM 61.7 °F 59.5 °F 93% 30.05 in 7.0 mi SSW 11.5 mph - N/A   Overcast
6:35 AM 62.6 °F 59.9 °F 91% 30.05 in 7.0 mi South 15.0 mph 21.9 mph N/A   Overcast
6:55 AM 62.2 °F 59.9 °F 92% 30.05 in 7.0 mi South 16.1 mph - N/A   Overcast
7:15 AM 62.1 °F 59.5 °F 91% 30.05 in 5.0 mi SSW 18.4 mph - N/A   Mostly Cloudy
7:35 AM 62.6 °F 59.9 °F 91% 30.05 in 7.0 mi SSW 18.4 mph - N/A   Overcast
7:55 AM 62.8 °F 59.9 °F 90% 30.05 in 7.0 mi South 17.3 mph 21.9 mph N/A   Overcast
8:15 AM 63.0 °F 59.9 °F 90% 30.05 in 7.0 mi South 18.4 mph - N/A   Overcast
8:35 AM 63.0 °F 59.9 °F 90% 30.05 in 7.0 mi South 18.4 mph - N/A   Overcast
8:55 AM 63.5 °F 59.9 °F 88% 30.04 in 7.0 mi South 17.3 mph - N/A   Mostly Cloudy
9:15 AM 63.7 °F 59.9 °F 87% 30.05 in 7.0 mi South 18.4 mph 24.2 mph N/A   Scattered Clouds
9:35 AM 63.9 °F 59.5 °F 86% 30.04 in 7.0 mi South 18.4 mph - N/A   Mostly Cloudy
9:55 AM 64.4 °F 59.9 °F 85% 30.04 in 7.0 mi South 15.0 mph - N/A   Overcast
10:15 AM 64.8 °F 59.9 °F 84% 30.03 in 7.0 mi South 17.3 mph - N/A   Mostly Cloudy
10:35 AM 65.3 °F 59.9 °F 83% 30.02 in 7.0 mi South 18.4 mph 25.3 mph N/A   Scattered Clouds
10:55 AM 66.6 °F 60.6 °F 81% 30.02 in 7.0 mi South 20.7 mph - N/A   Scattered Clouds
11:15 AM 66.9 °F 60.6 °F 80% 30.01 in 10.0 mi South 18.4 mph 24.2 mph N/A   Scattered Clouds
11:35 AM 68.5 °F 61.0 °F 77% 30.00 in 7.0 mi SSW 20.7 mph 26.5 mph N/A   Scattered Clouds
11:55 AM 68.9 °F 61.2 °F 76% 29.99 in 7.0 mi South 23.0 mph 26.5 mph N/A   Clear
12:15 PM 69.4 °F 60.8 °F 74% 29.99 in 7.0 mi South 17.3 mph - N/A   Clear
12:35 PM 70.7 °F 60.6 °F 70% 29.98 in 10.0 mi South 20.7 mph 29.9 mph N/A   Clear
12:55 PM 70.7 °F 60.3 °F 69% 29.98 in 7.0 mi SSW 21.9 mph 31.1 mph N/A   Mostly Cloudy
1:15 PM 69.6 °F 60.1 °F 72% 29.97 in 7.0 mi South 19.6 mph 26.5 mph N/A   Mostly Cloudy
1:35 PM 70.3 °F 59.7 °F 69% 29.96 in 7.0 mi SSW 21.9 mph 29.9 mph N/A   Clear
1:55 PM 70.5 °F 59.2 °F 67% 29.96 in 7.0 mi South 21.9 mph 26.5 mph N/A   Clear
2:15 PM 70.2 °F 58.8 °F 67% 29.96 in 7.0 mi SSW 23.0 mph 35.7 mph N/A   Clear
2:35 PM 70.2 °F 58.5 °F 66% 29.96 in 7.0 mi South 24.2 mph 29.9 mph N/A   Clear
2:55 PM 69.8 °F 58.1 °F 66% 29.96 in 7.0 mi South 19.6 mph - N/A   Clear
3:15 PM 69.3 °F 57.9 °F 67% 29.95 in 7.0 mi South 27.6 mph 35.7 mph N/A   Clear
3:35 PM 68.5 °F 57.7 °F 68% 29.95 in 7.0 mi South 24.2 mph 33.4 mph N/A   Clear
3:55 PM 68.0 °F 57.2 °F 68% 29.94 in 7.0 mi South 26.5 mph 33.4 mph N/A   Clear
4:15 PM 66.6 °F 57.2 °F 72% 29.95 in 7.0 mi South 21.9 mph 34.5 mph N/A   Clear
4:35 PM 65.7 °F 57.2 °F 74% 29.95 in 7.0 mi South 19.6 mph - N/A   Clear
4:55 PM 64.9 °F 57.2 °F 76% 29.96 in 10.0 mi South 19.6 mph - N/A   Clear
5:15 PM 65.3 °F 56.3 °F 73% 29.96 in 10.0 mi South 25.3 mph 33.4 mph N/A   Clear
5:35 PM 64.9 °F 56.5 °F 74% 29.96 in 10.0 mi South 23.0 mph 29.9 mph N/A   Clear
5:55 PM 63.7 °F 56.3 °F 77% 29.95 in 10.0 mi South 21.9 mph 28.8 mph N/A   Clear
6:15 PM 64.0 °F 56.5 °F 76% 29.96 in 10.0 mi South 23.0 mph 34.5 mph N/A   Clear
6:35 PM 64.0 °F 56.7 °F 77% 29.98 in 10.0 mi South 21.9 mph 27.6 mph N/A   Scattered Clouds
6:55 PM 64.6 °F 57.2 °F 77% 29.99 in 10.0 mi SSW 19.6 mph 27.6 mph N/A   Mostly Cloudy
7:15 PM 64.6 °F 57.4 °F 77% 30.00 in 10.0 mi SSW 17.3 mph 27.6 mph N/A   Overcast
7:35 PM 63.9 °F 57.4 °F 79% 30.00 in 10.0 mi SSW 17.3 mph 21.9 mph N/A   Overcast
7:55 PM 63.7 °F 57.4 °F 80% 30.00 in 10.0 mi SSW 17.3 mph 24.2 mph N/A   Overcast
8:15 PM 63.0 °F 57.2 °F 81% 30.00 in 10.0 mi SSW 19.6 mph - N/A   Mostly Cloudy
8:35 PM 63.5 °F 57.4 °F 80% 29.99 in 10.0 mi South 16.1 mph 23.0 mph N/A   Overcast
8:55 PM 63.5 °F 57.4 °F 80% 29.98 in 10.0 mi South 23.0 mph - N/A   Scattered Clouds
9:15 PM 63.5 °F 57.6 °F 81% 29.98 in 7.0 mi South 18.4 mph 27.6 mph N/A   Clear
9:35 PM 63.5 °F 57.6 °F 81% 29.99 in 10.0 mi South 17.3 mph 24.2 mph N/A   Clear
9:55 PM 63.0 °F 57.2 °F 81% 29.99 in 10.0 mi South 18.4 mph 24.2 mph N/A   Clear
10:15 PM 63.0 °F 56.8 °F 80% 29.99 in 10.0 mi South 16.1 mph 23.0 mph N/A   Scattered Clouds
10:35 PM 62.6 °F 56.3 °F 80% 29.99 in 10.0 mi South 18.4 mph 23.0 mph N/A   Scattered Clouds
10:55 PM 62.8 °F 56.1 °F 79% 29.99 in 10.0 mi South 16.1 mph 25.3 mph N/A   Mostly Cloudy
11:15 PM 62.6 °F 55.4 °F 77% 29.99 in 10.0 mi South 19.6 mph 25.3 mph N/A   Mostly Cloudy
11:35 PM 62.2 °F 54.9 °F 77% 29.99 in 10.0 mi South 17.3 mph 24.2 mph N/A   Scattered Clouds
11:55 PM 62.1 °F 54.5 °F 76% 29.99 in 10.0 mi South 16.1 mph - N/A   Mostly Cloudy